Location: Unspecified
(36.9193°S, 174.7252°E)
Time: 19:36:03
(UTC+13:00)

Envisat - Pass Details

Date: 25 September 2021
Orbit: 764 x 766 km, 98.2° (Epoch: 15 October)

Event Time Altitude Azimuth Distance (km) Brightness Sun altitude
Rises 04:38:02 0° 16° (NNE) 3,219 6.2 -18.3°
Reaches altitude 10° 04:40:19 10° 16° (NNE) 2,302 5.5 -17.9°
Maximum altitude 04:45:25 85° 104° (ESE) 782 3.0 -16.9°
Drops below altitude 10° 04:50:34 10° 191° (S) 2,333 5.5 -15.9°
Sets 04:52:54 0° 191° (SSW) 3,267 6.3 -15.4°
